Weather reports worldwide

Advertisment
Köln-Bonn, Germany (10513): temperature & dewpoint: 13.07.2018 13:00:00 - 19.07.2018 13:00:00 (CEST)Köln-Bonn, Germany (10513): temperature 5cm & temperature -5cm: 13.07.2018 13:00:00 - 19.07.2018 13:00:00 (CEST)Köln-Bonn, Germany (10513): temperature -20cm & temperature -100cm: 13.07.2018 13:00:00 - 19.07.2018 13:00:00 (CEST)Köln-Bonn, Germany (10513): wind speed & gusts: 13.07.2018 13:00:00 - 19.07.2018 13:00:00 (CEST)Köln-Bonn, Germany (10513): wind direction: 13.07.2018 13:00:00 - 19.07.2018 13:00:00 (CEST)Köln-Bonn, Germany (10513): reduced air pressure: 13.07.2018 13:00:00 - 19.07.2018 13:00:00 (CEST)Köln-Bonn, Germany (10513): visibility: 13.07.2018 13:00:00 - 19.07.2018 13:00:00 (CEST)Köln-Bonn, Germany (10513): sunshine duration: 13.07.2018 13:00:00 - 19.07.2018 13:00:00 (CEST)Köln-Bonn, Germany (10513): precipitation: 13.07.2018 13:00:00 - 19.07.2018 13:00:00 (CEST)
Date & Time tt [°C] td [°C] tt 5cm [°C] tt -5cm [°C] tt -20cm [°C] tt -100cm [°C] ff [km/h] ff [kn] fx [km/h] fx [kn] dd ppp [hPa] vv [km] sd [min] rr [mm]
19.07.2018 13:00:00 24,8 9,0 29,5 33,5 23,9 21,0 5 3 18 10 - 1018,0 10 51 0,0
19.07.2018 12:00:00 25,3 11,5 30,3 30,4 23,1 21,0 8 4 17 9 ESE 1018,4 10 47 0,0
19.07.2018 11:00:00 22,7 11,4 25,9 26,5 22,6 21,0 8 4 13 7 SE 1018,8 45 19 0,0
19.07.2018 10:00:00 20,8 11,6 22,9 24,1 22,3 21,0 7 4 10 6 SSE 1019,0 40 23 0,0
19.07.2018 09:00:00 19,6 11,8 21,8 21,3 22,3 21,0 5 3 9 5 SSE 1018,9 10 60 0,0
19.07.2018 08:00:00 16,9 12,9 17,7 19,2 22,6 21,0 2 1 5 3 - 1018,9 10 60 0,0
19.07.2018 07:00:00 12,2 10,4 12,1 18,2 23,0 21,0 8 4 8 4 NE 1018,9 10 8 0,0
19.07.2018 06:00:00 12,0 10,1 10,3 18,5 23,5 21,0 5 3 8 4 E 1018,9 35 0 0,0
19.07.2018 05:00:00 13,4 10,9 11,6 19,1 24,0 21,0 5 3 13 7 ENE 1018,8 10 0 0,0
19.07.2018 04:00:00 12,7 10,7 11,2 19,8 24,5 21,0 4 2 15 8 - 1018,9 10 0 0,0
19.07.2018 03:00:00 13,2 11,0 11,9 20,6 25,0 21,0 2 1 9 5 ENE 1018,9 10 0 0,0
19.07.2018 02:00:00 14,1 11,1 12,5 21,5 25,6 21,0 2 1 8 4 - 1018,6 10 0 0,0
19.07.2018 01:00:00 17,4 11,0 14,3 22,5 26,2 21,0 5 3 13 7 E 1018,2 40 0 0,0
19.07.2018 00:00:00 18,4 11,4 16,0 23,6 26,7 21,0 8 4 9 5 ESE 1018,0 40 0 0,0
18.07.2018 23:00:00 18,5 12,3 16,1 24,9 27,3 21,0 11 6 9 5 ENE 1017,7 10 0 0,0
18.07.2018 22:00:00 19,1 12,0 16,7 26,7 27,9 21,0 9 5 9 5 ENE 1017,5 10 0 0,0
18.07.2018 21:00:00 21,2 13,2 20,3 29,0 28,2 21,0 5 3 14 7 ENE 1017,1 10 6 0,0
18.07.2018 20:00:00 24,7 10,1 25,1 31,4 28,3 21,0 5 3 16 9 NNE 1017,0 10 46 0,0
18.07.2018 19:00:00 25,7 9,5 27,7 33,0 28,3 21,0 10 5 21 11 NE 1016,9 50 42 0,0
18.07.2018 18:00:00 25,2 9,8 26,6 34,2 28,1 21,0 11 6 19 10 NE 1017,3 10 27 0,0
18.07.2018 17:00:00 26,1 9,6 29,8 35,3 27,6 21,0 11 6 40 21 NE 1017,5 10 22 0,0
18.07.2018 16:00:00 27,1 9,7 33,4 37,3 26,8 21,0 9 5 21 11 - 1017,7 10 46 0,0
18.07.2018 15:00:00 25,2 9,3 31,0 37,6 25,7 21,0 9 5 18 10 - 1018,0 10 60 0,0
18.07.2018 14:00:00 24,6 9,3 30,8 35,6 24,6 21,0 9 5 18 10 NW 1018,5 10 60 0,0
18.07.2018 13:00:00 23,0 10,0 28,8 33,1 23,5 21,0 9 5 13 7 WSW 1018,9 10 60 0,0
18.07.2018 12:00:00 22,7 11,1 27,9 30,0 22,7 21,0 5 3 13 7 - 1019,2 10 60 0,0
18.07.2018 11:00:00 20,9 12,4 24,7 26,5 22,1 21,0 5 3 11 6 - 1019,4 10 60 0,0
18.07.2018 10:00:00 19,4 12,7 21,3 23,6 21,7 21,0 5 3 11 6 SSE 1019,6 35 60 0,0
18.07.2018 09:00:00 18,3 14,4 18,9 20,4 21,7 21,0 4 2 5 3 - 1019,6 10 60 0,0
18.07.2018 08:00:00 15,5 13,5 15,3 18,1 21,9 21,0 6 3 9 5 ESE 1019,5 25 60 0,0
18.07.2018 07:00:00 12,0 11,4 11,6 16,7 22,3 21,0 2 1 9 5 - 1019,4 10 29 0,0
18.07.2018 06:00:00 12,1 11,6 11,0 17,0 22,8 21,0 4 2 9 5 ENE 1019,0 10 0 0,0
18.07.2018 05:00:00 12,6 12,1 11,3 17,6 23,3 21,0 2 1 9 5 ENE 1018,9 10 0 0,0
18.07.2018 04:00:00 13,4 12,9 11,7 18,3 23,9 21,0 4 2 8 4 ENE 1018,7 10 0 0,0
18.07.2018 03:00:00 13,6 13,0 12,6 19,1 24,4 20,9 8 4 9 5 ESE 1018,7 25 0 0,0
18.07.2018 02:00:00 14,7 14,3 13,6 19,9 25,0 20,9 8 4 9 5 SE 1018,7 20 0 0,0
18.07.2018 01:00:00 15,5 15,1 14,3 20,8 25,6 20,9 4 2 9 5 ESE 1018,2 18 0 0,0
18.07.2018 00:00:00 16,1 15,5 14,9 21,9 26,3 20,9 3 2 5 3 E 1018,0 15 0 0,0
17.07.2018 23:00:00 16,6 16,0 15,5 23,1 26,9 20,9 2 1 12 6 - 1017,5 10 0 0,0
17.07.2018 22:00:00 17,8 16,2 17,0 24,6 27,5 20,9 8 4 13 7 ESE 1016,8 10 0 0,0
17.07.2018 21:00:00 18,0 17,1 18,2 26,1 28,1 20,9 10 6 16 9 ESE 1016,4 30 0 0,7
17.07.2018 20:00:00 18,4 15,8 17,7 28,9 28,5 20,9 8 4 61 33 W 1016,2 7 0 1,2
17.07.2018 19:00:00 27,0 11,7 27,5 32,7 28,4 20,9 23 12 35 19 W 1014,3 30 34 0,0
17.07.2018 18:00:00 28,4 10,7 32,2 33,1 28,3 20,9 18 10 34 18 NW 1014,0 10 35 0,0
17.07.2018 17:00:00 28,2 11,2 30,2 33,2 28,1 20,9 16 9 36 20 WNW 1014,3 50 5 0,0
17.07.2018 16:00:00 27,6 11,4 29,2 34,8 27,6 20,9 21 11 37 20 NW 1014,1 10 23 0,0
17.07.2018 15:00:00 29,1 11,2 33,8 35,1 26,9 20,9 22 12 36 19 WNW 1014,3 50 43 0,0
17.07.2018 14:00:00 27,7 10,9 31,8 34,8 26,2 20,8 15 8 31 17 WNW 1014,3 55 53 0,0
17.07.2018 13:00:00 26,3 12,8 29,1 33,2 25,4 20,8 13 7 28 15 WNW 1014,9 10 36 0,0
17.07.2018 12:00:00 26,5 12,7 32,3 31,4 24,7 20,8 13 7 22 12 NW 1014,8 40 57 0,0
17.07.2018 11:00:00 24,2 13,3 29,6 28,3 24,3 20,8 7 4 15 8 NW 1014,7 45 27 0,0
17.07.2018 10:00:00 23,0 13,3 25,4 26,8 24,0 20,8 5 3 16 9 W 1014,6 10 36 0,0
17.07.2018 09:00:00 21,4 12,3 24,1 23,5 24,0 20,7 3 2 9 5 E 1014,6 40 56 0,0
17.07.2018 08:00:00 18,6 12,3 19,7 21,8 24,2 20,7 4 2 9 5 - 1014,4 10 59 0,0
17.07.2018 07:00:00 15,4 12,2 15,3 20,7 24,6 20,7 2 1 11 6 - 1013,9 10 17 0,0
17.07.2018 06:00:00 14,7 11,5 13,4 20,8 25,1 20,7 5 3 16 9 ESE 1013,7 50 0 0,0
17.07.2018 05:00:00 14,2 11,2 12,5 21,4 25,6 20,6 11 6 15 8 ESE 1013,2 50 0 0,0
17.07.2018 04:00:00 14,0 11,4 12,9 22,2 26,2 20,6 8 4 13 7 SE 1013,3 10 0 0,0
17.07.2018 03:00:00 16,8 11,7 14,3 23,1 26,8 20,6 4 2 11 6 - 1013,4 10 0 0,0
17.07.2018 02:00:00 16,4 11,6 14,5 24,0 27,4 20,6 6 3 10 5 E 1013,3 60 0 0,0
17.07.2018 01:00:00 17,7 11,8 15,6 25,0 28,0 20,6 9 5 15 8 ENE 1013,0 10 0 0,0
17.07.2018 00:00:00 19,3 11,4 16,9 26,4 28,7 20,6 2 1 9 5 - 1012,9 10 0 0,0
16.07.2018 23:00:00 20,4 11,8 17,8 28,0 29,3 20,6 8 4 21 11 ENE 1012,4 10 0 0,0
16.07.2018 22:00:00 22,7 11,4 19,9 30,1 29,7 20,6 8 4 15 8 ENE 1011,8 10 20 0,0
16.07.2018 21:00:00 26,6 9,6 25,2 32,5 30,0 20,5 12 6 18 10 N 1011,2 70 59 0,0
16.07.2018 20:00:00 28,1 8,3 28,0 34,7 30,1 20,5 8 4 21 11 N 1010,7 10 53 0,0
16.07.2018 19:00:00 29,7 5,8 33,0 36,4 30,0 20,5 8 4 24 13 - 1010,4 10 44 0,0
16.07.2018 18:00:00 29,9 4,9 34,9 38,0 29,6 20,5 11 6 24 13 NNW 1010,6 60 59 0,0
16.07.2018 17:00:00 29,8 6,1 34,1 39,0 29,0 20,5 11 6 22 12 NE 1010,7 60 60 0,0
16.07.2018 16:00:00 29,8 6,4 34,5 39,4 28,1 20,5 6 4 29 16 NNW 1011,0 60 60 0,0
16.07.2018 15:00:00 29,5 7,7 36,2 38,9 27,1 20,5 8 4 22 12 - 1011,6 10 60 0,0
16.07.2018 14:00:00 29,0 10,8 35,6 37,4 26,0 20,5 9 5 18 10 - 1012,3 10 60 0,0
16.07.2018 13:00:00 28,7 11,5 34,1 35,3 24,9 20,5 5 3 18 10 WSW 1012,6 60 60 0,0
16.07.2018 12:00:00 25,9 11,3 32,5 32,5 24,0 20,5 8 4 11 6 - 1013,2 10 60 0,0
16.07.2018 11:00:00 24,7 11,7 28,9 29,3 23,3 20,4 4 2 11 6 S 1013,3 70 60 0,0
16.07.2018 10:00:00 22,9 11,9 26,4 25,8 23,0 20,4 5 3 13 7 S 1013,6 70 60 0,0
16.07.2018 09:00:00 20,0 11,7 22,3 22,4 23,0 20,4 3 1 8 4 SSE 1013,8 70 60 0,0
16.07.2018 08:00:00 17,2 11,5 18,9 20,2 23,2 20,4 6 3 11 6 SSE 1014,0 70 60 0,0
16.07.2018 07:00:00 13,3 10,4 13,7 18,9 23,7 20,3 6 3 8 4 SSE 1014,3 70 35 0,0
16.07.2018 06:00:00 11,9 9,3 10,4 19,3 24,2 20,3 4 2 11 6 SSE 1014,5 65 0 0,0
16.07.2018 05:00:00 13,1 9,9 11,1 20,0 24,8 20,3 8 4 11 6 ENE 1014,6 10 0 0,0
16.07.2018 04:00:00 13,7 9,8 12,0 20,8 25,3 20,3 2 1 9 5 - 1014,5 10 0 0,0
16.07.2018 03:00:00 13,6 9,7 12,0 21,7 26,0 20,2 4 2 8 4 ENE 1014,7 10 0 0,0
16.07.2018 02:00:00 14,9 10,0 12,6 22,7 26,6 20,2 5 3 9 5 SE 1014,9 60 0 0,0
16.07.2018 01:00:00 16,8 9,9 14,2 23,9 27,3 20,2 5 3 13 7 E 1014,9 65 0 0,0
16.07.2018 00:00:00 16,6 10,3 14,9 25,3 27,9 20,2 7 4 11 6 NNW 1015,0 70 0 0,0
15.07.2018 23:00:00 19,2 10,2 16,2 26,9 28,6 20,2 6 4 14 8 N 1014,8 70 0 0,0
15.07.2018 22:00:00 21,7 9,5 18,4 29,1 29,1 20,2 13 7 21 11 N 1014,3 70 24 0,0
15.07.2018 21:00:00 25,2 8,5 24,9 31,7 29,5 20,2 13 7 25 14 N 1013,7 10 60 0,0
15.07.2018 20:00:00 27,0 8,5 28,5 34,1 29,5 20,2 16 9 26 14 N 1013,3 10 60 0,0
15.07.2018 19:00:00 28,0 7,3 31,5 36,2 29,4 20,2 14 7 27 14 N 1013,6 70 60 0,0
15.07.2018 18:00:00 28,9 8,3 33,6 37,5 29,0 20,2 12 6 28 15 N 1013,8 65 60 0,0
15.07.2018 17:00:00 28,5 7,9 34,6 38,3 28,3 20,2 14 8 24 13 NE 1014,0 65 60 0,0
15.07.2018 16:00:00 28,4 8,0 35,6 38,6 27,4 20,2 15 8 28 15 N 1014,4 60 60 0,0
15.07.2018 15:00:00 28,4 8,3 34,1 38,1 26,4 20,1 15 8 31 17 N 1015,0 60 60 0,0
15.07.2018 14:00:00 27,9 10,8 34,6 37,0 25,3 20,1 13 7 21 11 NW 1015,7 10 60 0,0
15.07.2018 13:00:00 26,1 10,7 33,2 34,9 24,2 20,1 8 4 21 11 WNW 1016,3 10 60 0,0
15.07.2018 12:00:00 25,2 11,3 31,9 32,3 23,3 20,1 9 5 16 9 NNW 1016,7 10 60 0,0
15.07.2018 11:00:00 23,8 11,5 28,2 29,0 22,5 20,1 6 4 12 6 NNW 1017,0 35 60 0,0
15.07.2018 10:00:00 22,1 13,9 25,6 25,4 22,1 20,1 5 3 8 4 S 1017,4 30 60 0,0
15.07.2018 09:00:00 19,1 12,6 22,0 21,8 22,1 20,0 3 2 8 4 SE 1017,6 30 60 0,0
15.07.2018 08:00:00 17,3 13,3 19,3 19,5 22,3 20,0 5 3 8 4 SE 1017,7 30 60 0,0
15.07.2018 07:00:00 14,8 12,0 14,5 18,2 22,8 20,0 6 3 13 7 E 1017,6 27 37 0,0
15.07.2018 06:00:00 11,8 11,0 10,5 18,4 23,3 20,0 2 1 13 7 SSE 1018,0 10 0 0,0
15.07.2018 05:00:00 12,3 11,1 10,7 19,1 23,8 19,9 5 3 11 6 ENE 1018,1 10 0 0,0
15.07.2018 04:00:00 11,9 11,0 11,0 19,9 24,4 19,9 5 3 9 5 SSE 1018,1 10 0 0,0
15.07.2018 03:00:00 14,5 12,4 12,7 20,8 25,0 19,9 4 2 5 3 ESE 1018,1 50 0 0,0
15.07.2018 02:00:00 14,9 12,2 12,9 21,9 25,6 19,9 5 3 8 4 SE 1018,3 10 0 0,0
15.07.2018 01:00:00 17,4 12,5 15,1 23,1 26,2 19,9 3 2 8 4 E 1018,2 50 0 0,0
15.07.2018 00:00:00 19,1 12,5 16,8 24,3 26,9 19,9 11 6 13 7 ENE 1018,1 10 0 0,0
14.07.2018 23:00:00 20,6 12,3 17,7 25,8 27,5 19,9 5 3 16 9 NE 1017,9 10 0 0,0
14.07.2018 22:00:00 21,9 11,9 18,5 27,8 28,0 19,9 10 5 22 12 N 1017,5 50 23 0,0
14.07.2018 21:00:00 23,8 11,0 23,4 30,3 28,3 19,8 9 5 24 13 N 1017,0 10 60 0,0
14.07.2018 20:00:00 26,1 10,3 27,4 32,8 28,4 19,8 13 7 26 14 N 1016,8 10 60 0,0
14.07.2018 19:00:00 27,0 11,5 30,0 34,8 28,2 19,8 13 7 26 14 N 1017,0 40 60 0,0
14.07.2018 18:00:00 27,1 12,2 31,0 36,3 27,7 19,8 16 9 31 17 NNW 1017,2 10 60 0,0
14.07.2018 17:00:00 27,2 12,0 32,8 36,6 27,1 19,8 16 9 28 15 NW 1017,3 35 55 0,0
14.07.2018 16:00:00 26,3 12,4 29,8 36,6 26,4 19,8 12 7 26 14 NW 1017,7 35 50 0,0
14.07.2018 15:00:00 26,7 12,7 30,6 36,1 25,5 19,8 15 8 27 15 NW 1018,2 10 38 0,0
14.07.2018 14:00:00 26,5 12,1 34,4 36,1 24,4 19,8 11 6 18 10 NNW 1018,6 10 60 0,0
14.07.2018 13:00:00 26,6 13,6 31,7 33,5 23,3 19,8 7 4 20 11 N 1019,1 25 55 0,0
14.07.2018 12:00:00 24,8 12,7 30,7 31,3 22,4 19,8 8 4 23 12 W 1019,6 25 60 0,0
14.07.2018 11:00:00 24,0 14,5 28,1 27,8 21,7 19,8 5 3 9 5 W 1020,0 25 60 0,0
14.07.2018 10:00:00 20,7 13,5 24,8 24,2 21,3 19,7 4 2 9 5 - 1020,5 10 60 0,0
14.07.2018 09:00:00 20,1 13,8 21,3 20,9 21,2 19,7 3 1 9 5 SW 1020,3 25 60 0,0
14.07.2018 08:00:00 16,8 13,5 17,9 18,9 21,4 19,7 5 3 11 6 ESE 1020,2 27 60 0,0
14.07.2018 07:00:00 13,3 12,0 13,4 17,7 21,8 19,7 8 4 11 6 SE 1020,2 30 13 0,0
14.07.2018 06:00:00 12,8 12,0 11,7 18,0 22,3 19,7 11 6 11 6 SE 1020,1 30 0 0,0
14.07.2018 05:00:00 13,1 12,1 12,2 18,6 22,8 19,6 5 3 11 6 E 1020,2 30 0 0,0
14.07.2018 04:00:00 13,4 12,2 12,2 19,2 23,3 19,6 9 5 13 7 SE 1019,9 35 0 0,0
14.07.2018 03:00:00 13,8 12,0 13,1 19,9 23,9 19,6 7 4 9 5 E 1019,8 40 0 0,0
14.07.2018 02:00:00 14,7 12,7 13,5 20,9 24,5 19,6 6 3 8 4 E 1019,9 45 0 0,0
14.07.2018 01:00:00 16,8 12,9 14,1 21,9 25,1 19,6 2 1 8 4 - 1019,8 10 0 0,0
14.07.2018 00:00:00 17,5 13,0 15,2 23,1 25,7 19,6 5 3 11 6 - 1019,7 10 0 0,0
13.07.2018 23:00:00 18,0 13,5 16,5 24,6 26,3 19,6 6 4 9 5 ESE 1019,5 50 0 0,0
13.07.2018 22:00:00 20,4 13,5 17,9 26,8 26,8 19,6 6 3 14 7 ENE 1019,0 50 17 0,0
13.07.2018 21:00:00 24,3 11,7 23,8 29,6 27,1 19,6 9 5 18 10 NNE 1018,5 50 60 0,0
13.07.2018 20:00:00 25,9 10,9 26,9 32,0 27,1 19,6 13 7 21 11 NNE 1018,4 50 60 0,0
13.07.2018 19:00:00 26,5 11,5 30,3 34,0 26,8 19,6 11 6 21 11 NNE 1018,6 10 59 0,0
13.07.2018 18:00:00 27,0 10,7 32,5 35,8 26,3 19,6 4 2 24 13 NNE 1018,9 50 60 0,0
13.07.2018 17:00:00 26,8 9,5 32,9 35,8 25,5 19,7 9 5 25 14 N 1019,0 10 60 0,0
13.07.2018 16:00:00 26,3 9,4 30,9 35,6 24,7 19,7 6 3 26 14 NE 1019,4 50 60 0,0
13.07.2018 15:00:00 25,7 9,9 31,7 34,7 23,7 19,7 11 6 29 16 N 1019,7 50 59 0,0
13.07.2018 14:00:00 25,7 12,8 32,0 32,9 22,7 19,7 11 6 24 13 NNW 1020,1 40 58 0,0
13.07.2018 13:00:00 24,8 13,2 29,6 30,4 21,8 19,7 8 4 25 14 WNW 1020,4 40 60 0,0

tt = temperature
td = dewpoint
tt 5cm = temperature 5cm
tt -5cm = temperature -5cm
tt -20cm = temperature -20cm
tt -100cm = temperature -100cm
ff = wind speed
fx = gusts
dd = wind direction
ppp = reduced air pressure
vv = visibility
sd = sunshine duration
rr = precipitation

Next stations